SL-16 DEB

Satellite information

Favourite Embed

Satellite Type and Status

DEBRISIN ORBIT

Key statistics

Satellite SL-16 DEB at a glance.

Uptime

11943

Days in orbit

Revolutions

≈ 14.1

Per day

Orbit

LEO

Low Earth Orbit

Inclination

70.8

Latest

Satellite identification and parameters

Extended collection of information and parameters for SL-16 DEB.

Object identification

Identified? True

Debris? True

Object name: SL-16 DEB

International designator: 1992-093DZ

Object number (NORAD): 22432

Object ID (CCSDS): 22432

Country: COMMONWEALTH OF INDEPENDENT STATES (CIS)

Current information (Y/N): Y

RCS size: SMALL

Orbital parameters

Period: 102.372 minutes

Inclination: 70.832 deg

SMA: 7249.062 km

Apoapsis: 943.198 km

Periapsis: 798.655 km

RAAN: 123.2854 deg

Eccentricy: 0.00996977

Argument of periapsis: 45.7805 deg

Mean anomaly: 71.2805 deg

Mean motion: 14.0663055 rev/day

Mean motion (dot): 0.00001911 rev/day2

B* drag term: 0.0011285011 1/REarth

Two-line elements (TLE)

Creation date: Sept. 4, 2025, 10:13 a.m.

Reference frame: TEME

Reference center: EARTH

Epoch: Sept. 4, 2025, 1:39 a.m. UTC

TLE line 0: 0 SL-16 DEB

TLE line 1: 1 22432U 92093DZ 25247.06917091 .00001911 00000-0 11285-2 0 9990

TLE line 2: 2 22432 70.8320 123.2854 0099698 45.7805 71.2805 14.06630550665639

Live tracking on map

Real-time ground track for satellite SL-16 DEB.

In-orbit conjunctions

A list of the most updated potential collisions computed for object SL-16 DEB.

Target Orbit TCA Probability of collision Miss distance Type
IRS 1B SSO 2025-01-30 18:40:58 0.000164475 87.0 (m) PAYLOAD

Associated space launch

Second generation ELING satellite

SL-16 DEB was lifted into orbit during the mission ‘Zenit-2 | Tselina-2 12’, on board a Zenit-2 space rocket.

The launch took place on Dec. 25, 1992, 5:56 a.m. from 45/1.

For more information about the launch, click the button.

Launch to space Zenit-2 | Tselina-2 12
Zenit-2 | Tselina-2 12

Agency: N/A

Status: Launch Successful

Launch date: Dec. 25, 1992, 5:56 a.m. UTC

Rocket: Zenit-2

Launch pad: 45/1

Location: Baikonur Cosmodrome, Republic of Kazakhstan

...

Latest news about this satellite

There are no fresh news available about this satellite. Check back as we update our databases every day.


Newsletter sign-up

Weekly statistics, charts and insights to help you stay on top of the space industry.